Gaylord, MI

3:56 PM EST on February 13, 2016 (GMT -0500)
Otsego County

Weather History for KGLR - December, 2013

Change the Weather History Date:

Monday, December 2, 2013

  Actual Average Record
Temperature  
Mean Temperature 26 °F -  
Max Temperature 28 °F 33 °F 62 °F (1951)
Min Temperature 21 °F 18 °F -14 °F (1976)
Degree Days  
Heating Degree Days 38    
Moisture  
Dew Point 22 °F    
Average Humidity 83    
Maximum Humidity 88    
Minimum Humidity 75    
Precipitation  
Precipitation 0.00 in - - ()
Sea Level Pressure  
Sea Level Pressure 29.95 in    
Wind  
Wind Speed 2 mph (East)    
Max Wind Speed 6 mph    
Max Gust Speed -    
Visibility 10 miles    
Events Snow    
Averages and records for this station are not official NWS values.
T = Trace of Precipitation, MM = Missing Value Source: NWS Daily Summary

Daily Weather History Graph

Daily Weather History Graph

Search for Another Location

Airport or City:

Trip Planner

Search our weather history database for the weather conditions in past years. The results will help you decide how hot, cold, wet, or windy it might be!

Date:

Astronomy

Dec. 02, 2013 Rise Set
Actual Time 7:58 AM EST 4:58 PM EST
Civil Twilight 7:25 AM EST 5:31 PM EST
Nautical Twilight 6:48 AM EST 6:08 PM EST
Astronomical Twilight 6:12 AM EST 6:43 PM EST
Moon 7:20 AM EST (12/2) 5:01 PM EST (12/2)
Length of Visible Light 10h 06m
Length of Day
9h 00m
Waning Crescent, 0% of the Moon is Illuminated
Dec 2
Waning Crescent
Dec 2
New
Dec 9
First Quarter
Dec 17
Full
Dec 25
Last Quarter

Hourly Weather History & Observations

Time (EST) Temp. Windchill Dew Point Humidity Pressure Visibility Wind Dir Wind Speed Gust Speed Precip Events Conditions
12:53 AM 27.0 °F - 23.0 °F 85% 30.01 in 10.0 mi Calm Calm - N/A   Overcast
1:20 AM 26.1 °F - 23.0 °F 88% 29.95 in 10.0 mi Calm Calm - N/A   Overcast
1:53 AM 27.0 °F - 23.0 °F 85% 30.00 in 10.0 mi Calm Calm - N/A   Overcast
2:31 AM 26.1 °F 21.9 °F 23.0 °F 88% 29.94 in 10.0 mi ENE 3.5 mph - N/A   Overcast
2:53 AM 26.1 °F 21.9 °F 23.0 °F 88% 30.00 in 10.0 mi ENE 3.5 mph - N/A   Overcast
3:15 AM 26.1 °F 21.9 °F 23.0 °F 88% 29.94 in 10.0 mi ENE 3.5 mph - N/A   Overcast
3:53 AM 26.1 °F - 23.0 °F 88% 29.98 in 10.0 mi Calm Calm - N/A   Overcast
4:53 AM 26.1 °F - 21.9 °F 84% 29.98 in 10.0 mi Calm Calm - N/A   Overcast
5:14 AM 26.1 °F 20.5 °F 23.0 °F 88% 29.92 in 10.0 mi ESE 4.6 mph - N/A   Overcast
5:53 AM 26.1 °F - 23.0 °F 88% 29.97 in 10.0 mi Calm Calm - N/A   Overcast
6:02 AM 26.1 °F - 23.0 °F 88% 29.91 in 10.0 mi Calm Calm - N/A   Overcast
6:15 AM 26.1 °F - 21.9 °F 84% 29.92 in 10.0 mi Calm Calm - N/A   Overcast
6:53 AM 26.1 °F - 21.0 °F 81% 29.97 in 10.0 mi Calm Calm - N/A   Overcast
7:53 AM 26.1 °F 21.9 °F 21.0 °F 81% 29.97 in 10.0 mi SE 3.5 mph - N/A   Overcast
8:53 AM 26.1 °F 19.4 °F 21.0 °F 81% 29.97 in 8.0 mi SE 5.8 mph - N/A   Overcast
9:03 AM 26.1 °F 19.4 °F 21.0 °F 81% 29.91 in 10.0 mi SE 5.8 mph - N/A   Overcast
9:42 AM 26.1 °F 21.9 °F 21.0 °F 81% 29.91 in 10.0 mi ESE 3.5 mph - N/A   Overcast
9:53 AM 26.1 °F 21.9 °F 21.0 °F 81% 29.96 in 10.0 mi ESE 3.5 mph - N/A   Overcast
10:53 AM 27.0 °F 21.6 °F 21.9 °F 81% 29.96 in 10.0 mi East 4.6 mph - N/A   Overcast
11:53 AM 28.0 °F - 21.9 °F 78% 29.95 in 10.0 mi Calm Calm - N/A   Overcast
12:53 PM 28.0 °F - 21.0 °F 75% 29.94 in 9.0 mi Calm Calm - 0.00 in   Overcast
1:53 PM 28.0 °F - 21.9 °F 78% 29.93 in 7.0 mi Calm Calm - 0.00 in Snow Light Snow
2:53 PM 28.0 °F - 23.0 °F 81% 29.92 in 10.0 mi Calm Calm - 0.00 in   Overcast
3:53 PM 28.0 °F - 23.0 °F 81% 29.92 in 10.0 mi Calm Calm - N/A   Overcast
4:53 PM 28.0 °F 24.2 °F 24.1 °F 85% 29.92 in 10.0 mi NE 3.5 mph - N/A   Overcast
5:53 PM 28.0 °F 24.2 °F 24.1 °F 85% 29.93 in 10.0 mi NE 3.5 mph - N/A   Overcast
6:43 PM 28.0 °F 24.2 °F 23.0 °F 81% 29.87 in 10.0 mi East 3.5 mph - N/A   Overcast
6:53 PM 28.0 °F 24.2 °F 23.0 °F 81% 29.93 in 10.0 mi NE 3.5 mph - N/A   Overcast
7:53 PM 28.0 °F - 21.0 °F 75% 29.94 in 10.0 mi Calm Calm - N/A   Overcast
8:53 PM 27.0 °F - 19.9 °F 75% 29.94 in 10.0 mi Calm Calm - N/A   Overcast
9:53 PM 26.1 °F - 19.9 °F 78% 29.96 in 10.0 mi Calm Calm - N/A   Overcast
10:53 PM 25.0 °F 20.7 °F 19.9 °F 81% 29.96 in 10.0 mi ENE 3.5 mph - N/A   Overcast
11:53 PM 21.9 °F 17.2 °F 18.0 °F 85% 29.96 in 10.0 mi NE 3.5 mph - N/A   Clear